Showing default

S-NET A, 43188

Orbit data source: Space-Track

S-NET A, 43188 is a payload satellite owned by TUB (DE) in SSO that was launched on Thu, 01 Feb 2018 UTC via a SOYUZ-2-1A launch vehicle from the Vostochny Cosmodrome (VOSTO). Payloads include a variety of satellites, spacecraft, and rockets equipped with specific instruments for various scientific and technological missions. These include communications satellites like Starlink; space stations such as the ISS; scientific satellites like the Hubble; Earth observation satellites from companies like Planet Labs, Umbra, and HawkEye 360; GPS; miniature CubeSats for education and research; and military/defense satellites.

Loading next visibility...
S-NET A details
Identifier
43188, 2018-014J
Orbit
SSO
Last TLE update15 hours ago
Origin
Flag of DETUB (DE / GER)
ManufacturerTUB
MissionOperational Commercial Com/Tech
Bus & MotorTUBIX10, Unknown motor
Mass8 kg wet, 8 kg dry
Launch date (UTC)
2018-02-01 (7 years ago)
Launch vehicle
SOYUZ-2-1A
Launch site
Vostochny Cosmodrome (VOSTO)
Object type
Payload
Rocket body
Debris
Shape & HBRBox, 0.24 m
Radar Cross Section0.086 m², Medium (>0.1 m² and < 1m²)

Expand to show TLE details & history

TLE from 15 hours ago
0 S-NET A
1 43188U 18014J   24346.28876659  .00009009  00000-0  58099-3 0  9990
2 43188  97.5770 245.3662 0011885 113.8702 246.3773 15.08469543375163
Epoch: 2024-12-11T06:55Z
Definitive object data (Epoch: 2024-12-11T06:55:49.433Z)
Latitude-0.00003°
Longitude60.92464°
Altitude547.25 km
Speed7.587 km/s
True Right ascension16h 21m 27s
True Declination0° 00' 00"
Sunlit
Object was in daylight at TLE epoch
Visualization TLE readout
Latitude78.64035°
Longitude20.34409°
Altitude546.974 km
Speed7.599 km/s
Apparent Right ascension09h 01m 34s
Apparent Declination27° 22' 04"
Sunlit
Object is in daylight
Visualization observer readout
Local Sidereal Time20:00:57
Azimuth345.576° N
Elevation-21.253°
Doppler factor1
Orbital elements
Apogee altitude546.084 km
Perigee altitude529.645 km
Semi-major axis6,916.002 km
Eccentricity0.0011885
Inclination97.577°
RAAN245.3662°
Arg. of periapsis113.8702°
True anomaly246.25259°
Mean anomaly246.3773°
Eccentric anomaly246.31494°
Mean motion3.77364 °/min
BSTAR0.00058099
Orbital period95.4 mins
Loading maneuver chart data...
Loading historical data...
Loading historical data...
Loading historical data...
Loading historical data...
Loading historical data...
Loading historical data...
Loading historical data...

S-NET A Visibility forecast

Observer location: undefined°, undefined

Span
Click to sort rows by Start time (UTC) header in descending order
Start Az.
Max El. time (UTC)
Max El. Az.
Max El.
End time (UTC)
End Az.
6 mins2024-12-12 05:47:04.363Z34.13° NE2024-12-12 05:50:04.363Z86.731° E27.06°2024-12-12 05:53:04.363Z154.617° SSE
5 mins2024-12-12 18:06:04.363Z218.697° SW2024-12-12 18:08:04.363Z277.013° WNW28.048°2024-12-12 18:11:04.363Z327.608° NNW
|